Meteo pe oră la Dzierdziowka

Astăzi, 3 Martie, Miercuri

Timp Temperatura Precipitaţii Vânt Presiune Umiditate
00:00 +3°C° 0 mm 1 m/s 761 mmHg 91%
01:00 +3°C° 0 mm 1 m/s 760 mmHg 92%
02:00 +3°C° 0 mm 1 m/s 760 mmHg 92%
03:00 +2°C° 0 mm 1 m/s 760 mmHg 92%
04:00 +2°C° 0 mm 1 m/s 760 mmHg 92%
05:00 +2°C° 0 mm 1 m/s 760 mmHg 92%
06:00 +2°C° 0 mm 1 m/s 760 mmHg 92%
07:00 +2°C° 0 mm 1 m/s 760 mmHg 92%
08:00 +4°C° 0 mm 1 m/s 759 mmHg 85%
09:00 +6°C° 0 mm 1 m/s 759 mmHg 77%
10:00 +7°C° 0 mm 2 m/s 759 mmHg 70%
11:00 +8°C° 0 mm 2 m/s 758 mmHg 65%
12:00 +9°C° 0 mm 2 m/s 758 mmHg 60%
13:00 +10°C° 0 mm 2 m/s 758 mmHg 55%
14:00 +10°C° 0 mm 2 m/s 757 mmHg 57%
15:00 +10°C° 0 mm 2 m/s 756 mmHg 58%
16:00 +10°C° 0 mm 2 m/s 755 mmHg 60%
17:00 +9°C° 0 mm 2 m/s 755 mmHg 65%
18:00 +7°C° 0 mm 2 m/s 755 mmHg 70%
19:00 +6°C° 0 mm 2 m/s 754 mmHg 75%
20:00 +6°C° 0 mm 2 m/s 754 mmHg 77%
21:00 +4°C° 0 mm 3 m/s 753 mmHg 80%
22:00 +4°C° 0 mm 3 m/s 753 mmHg 83%
23:00 +3°C° 0 mm 3 m/s 753 mmHg 83%

Mâine, 4 Martie, Joi

Timp Temperatura Precipitaţii Vânt Presiune Umiditate
00:00 +3°C° 0 mm 4 m/s 752 mmHg 84%
01:00 +3°C° 0 mm 4 m/s 752 mmHg 85%
02:00 +3°C° 0 mm 4 m/s 751 mmHg 86%
03:00 +1°C° 0 mm 4 m/s 750 mmHg 86%
04:00 +1°C° 0 mm 4 m/s 750 mmHg 87%
05:00 +1°C° 0 mm 4 m/s 749 mmHg 85%
06:00 +2°C° 0 mm 5 m/s 749 mmHg 84%
07:00 +2°C° 0 mm 5 m/s 749 mmHg 82%
08:00 +5°C° 0 mm 5 m/s 748 mmHg 78%
09:00 +5°C° 0 mm 6 m/s 748 mmHg 74%
10:00 +8°C° 0 mm 7 m/s 747 mmHg 70%
11:00 +9°C° 0 mm 7 m/s 747 mmHg 65%
12:00 +10°C° 0 mm 7 m/s 747 mmHg 61%
13:00 +10°C° 0 mm 7 m/s 747 mmHg 57%
14:00 +10°C° 0 mm 6 m/s 746 mmHg 57%
15:00 +10°C° 0 mm 5 m/s 746 mmHg 58%
16:00 +11°C° 0 mm 4 m/s 745 mmHg 58%
17:00 +8°C° 0 mm 4 m/s 745 mmHg 64%
18:00 +7°C° 0 mm 4 m/s 745 mmHg 70%
19:00 +6°C° 0 mm 4 m/s 745 mmHg 76%
20:00 +5°C° 0.1 mm 4 m/s 745 mmHg 77%
21:00 +4°C° 0.1 mm 4 m/s 745 mmHg 79%
22:00 +3°C° 0.1 mm 4 m/s 745 mmHg 80%
23:00 +2°C° 0.1 mm 3 m/s 745 mmHg 81%

Poimâine, 5 Martie, Vineri

Timp Temperatura Precipitaţii Vânt Presiune Umiditate
00:00 +2°C° 0.1 mm 3 m/s 745 mmHg 82%
01:00 +1°C° 0.1 mm 3 m/s 745 mmHg 83%
02:00 +1°C° 0.2 mm 3 m/s 745 mmHg 87%
03:00 0°C° 0.2 mm 3 m/s 745 mmHg 91%
04:00 0°C° 0.2 mm 3 m/s 745 mmHg 94%
05:00 -2°C° 0.8 mm 4 m/s 746 mmHg 93%
06:00 -2°C° 0.8 mm 4 m/s 747 mmHg 91%
07:00 -2°C° 0.8 mm 5 m/s 747 mmHg 90%
08:00 -2°C° 0 mm 5 m/s 748 mmHg 83%
09:00 -1°C° 0 mm 4 m/s 748 mmHg 77%
10:00 -1°C° 0 mm 4 m/s 749 mmHg 71%
11:00 0°C° 0 mm 4 m/s 749 mmHg 65%
12:00 0°C° 0 mm 4 m/s 749 mmHg 59%
13:00 +1°C° 0 mm 4 m/s 750 mmHg 53%
14:00 +1°C° 0 mm 4 m/s 750 mmHg 51%
15:00 +1°C° 0 mm 4 m/s 750 mmHg 50%
16:00 0°C° 0 mm 4 m/s 751 mmHg 49%
17:00 0°C° 0 mm 3 m/s 751 mmHg 55%
18:00 -1°C° 0 mm 3 m/s 752 mmHg 60%
19:00 -1°C° 0 mm 2 m/s 753 mmHg 66%
20:00 -2°C° 0 mm 2 m/s 753 mmHg 67%
21:00 -2°C° 0 mm 2 m/s 754 mmHg 68%
22:00 -2°C° 0 mm 2 m/s 754 mmHg 69%
23:00 -2°C° 0 mm 2 m/s 754 mmHg 69%

6 Martie, Sâmbătă

Timp Temperatura Precipitaţii Vânt Presiune Umiditate
00:00 -2°C° 0 mm 2 m/s 755 mmHg 70%
01:00 -2°C° 0 mm 2 m/s 755 mmHg 71%
02:00 -2°C° 0 mm 2 m/s 755 mmHg 69%
03:00 -2°C° 0 mm 2 m/s 756 mmHg 67%
04:00 -2°C° 0 mm 2 m/s 756 mmHg 65%
05:00 -2°C° 0 mm 2 m/s 756 mmHg 64%
06:00 -2°C° 0 mm 3 m/s 757 mmHg 62%
07:00 -4°C° 0 mm 3 m/s 758 mmHg 61%
08:00 -2°C° 0 mm 3 m/s 758 mmHg 55%
09:00 -1°C° 0 mm 3 m/s 759 mmHg 50%
10:00 -1°C° 0 mm 4 m/s 759 mmHg 45%
11:00 0°C° 0 mm 3 m/s 759 mmHg 42%
12:00 +1°C° 0 mm 3 m/s 759 mmHg 40%
13:00 +1°C° 0 mm 3 m/s 759 mmHg 37%
14:00 +1°C° 0 mm 3 m/s 759 mmHg 39%
15:00 +1°C° 0 mm 3 m/s 759 mmHg 41%
16:00 +1°C° 0 mm 3 m/s 759 mmHg 43%
17:00 0°C° 0 mm 3 m/s 759 mmHg 47%
18:00 -1°C° 0 mm 2 m/s 759 mmHg 52%
19:00 -2°C° 0 mm 2 m/s 759 mmHg 56%
20:00 -3°C° 0 mm 2 m/s 759 mmHg 57%
21:00 -4°C° 0 mm 3 m/s 759 mmHg 58%
22:00 -4°C° 0 mm 3 m/s 759 mmHg 58%
23:00 -4°C° 0 mm 3 m/s 758 mmHg 59%

7 Martie, Duminică

Timp Temperatura Precipitaţii Vânt Presiune Umiditate
00:00 -4°C° 0 mm 4 m/s 758 mmHg 59%
01:00 -3°C° 0 mm 4 m/s 758 mmHg 59%
02:00 -3°C° 0 mm 4 m/s 757 mmHg 59%
03:00 -4°C° 0 mm 5 m/s 756 mmHg 60%
04:00 -4°C° 0 mm 5 m/s 756 mmHg 60%
05:00 -4°C° 0 mm 5 m/s 756 mmHg 59%
06:00 -4°C° 0 mm 5 m/s 755 mmHg 57%
07:00 -4°C° 0 mm 6 m/s 755 mmHg 56%
08:00 -3°C° 0 mm 6 m/s 755 mmHg 50%
09:00 -1°C° 0 mm 7 m/s 754 mmHg 45%
10:00 0°C° 0 mm 7 m/s 754 mmHg 40%
11:00 +2°C° 0 mm 7 m/s 754 mmHg 39%
12:00 +2°C° 0 mm 7 m/s 753 mmHg 38%
13:00 +3°C° 0 mm 7 m/s 752 mmHg 37%
14:00 +3°C° 0 mm 7 m/s 752 mmHg 40%
15:00 +2°C° 0 mm 6 m/s 751 mmHg 43%
16:00 +2°C° 0 mm 5 m/s 751 mmHg 46%
17:00 +1°C° 0 mm 5 m/s 751 mmHg 51%
18:00 -1°C° 0 mm 4 m/s 751 mmHg 57%
19:00 -2°C° 0 mm 4 m/s 750 mmHg 62%
20:00 -1°C° 0 mm 3 m/s 750 mmHg 64%
21:00 -2°C° 0 mm 3 m/s 750 mmHg 66%
22:00 -2°C° 0 mm 3 m/s 750 mmHg 68%
23:00 -2°C° 0 mm 3 m/s 750 mmHg 69%

8 Martie, Luni

Timp Temperatura Precipitaţii Vânt Presiune Umiditate
00:00 -2°C° 0 mm 3 m/s 750 mmHg 70%
01:00 -2°C° 0 mm 3 m/s 749 mmHg 72%
02:00 -2°C° 0 mm 3 m/s 749 mmHg 71%
03:00 -4°C° 0 mm 3 m/s 748 mmHg 71%
04:00 -4°C° 0 mm 3 m/s 748 mmHg 71%
05:00 -3°C° 0 mm 4 m/s 748 mmHg 70%
06:00 -3°C° 0 mm 4 m/s 748 mmHg 70%
07:00 -3°C° 0 mm 4 m/s 747 mmHg 69%
08:00 -1°C° 0 mm 5 m/s 747 mmHg 67%
09:00 -1°C° 0 mm 6 m/s 747 mmHg 65%
10:00 +1°C° 0 mm 6 m/s 748 mmHg 63%
11:00 +1°C° 0.1 mm 6 m/s 748 mmHg 68%
12:00 +1°C° 0.1 mm 6 m/s 748 mmHg 72%
13:00 +1°C° 0.1 mm 5 m/s 748 mmHg 77%
14:00 0°C° 0.1 mm 5 m/s 748 mmHg 73%
15:00 0°C° 0.1 mm 4 m/s 749 mmHg 68%
16:00 0°C° 0.1 mm 4 m/s 749 mmHg 63%
17:00 0°C° 0 mm 3 m/s 749 mmHg 67%
18:00 -2°C° 0 mm 3 m/s 750 mmHg 71%
19:00 -3°C° 0 mm 2 m/s 750 mmHg 75%
20:00 -3°C° 0 mm 2 m/s 751 mmHg 75%
21:00 -1°C° 0 mm 1 m/s 752 mmHg 75%
22:00 -2°C° 0 mm 1 m/s 752 mmHg 74%
23:00 -2°C° 0 mm 1 m/s 752 mmHg 76%
Arată mai mult

Formular de consimțământ

Meteoprog și furnizorii noștri de servicii pot stoca și accesa date personale, precum cookies, identificatori de dispozitiv sau alte tehnologii similare pe dispozitivul dumneavoastră și procesa astfel de date pentru a personaliza conținutul și reclamele, dar și pentru a oferi caracteristici de social media și pentru a analiza traficul.

  • Stocarea și/sau accesarea informațiilor pe dispozitivul dumneavoastră

    Cookies, identificatori de dispozitiv sau alte informații pot fi stocate sau accesate pe dispozitiv în scopurile indicate mai sus.

  • Reclame și conținut personalizat, evaluarea reclamelor și a conținutului, informații despre audiențe și dezvoltarea produselor

    Reclamele și conținutul pot fi personalizate pe baza unui profil. Pot fi adăugate date suplimentare pentru a personaliza mai bine reclamele și conținutul. Performanța reclamelor și conținutului poate fi măsurată. Pot fi obținute informații despre utilizatorii care au văzut reclamele și conținutul. Aceste date pot fi utilizate pentru a dezvolta sau îmbunătăți experiența utilizatorilor, sistemele și software-ul.

Dând clic pe ‘Sunt de acord’, permiteți utilizarea cookie-urilor menționate, a identificatorilor de dispozitiv, balizelor web sau altor tehnologii similare. Setările pot fi modificate din browser-ul dispozitivului dumneavoastră.

În anumite scopuri, interesele legitime pot prima asupra consimțământului. Puteți citi mai multe informații în acest sens în Politica privind Confidențialitatea Datelor și Cookie.